カタログに戻る

HULIANWANG DIGUI-04

運用中通信PO
NORAD 62326·PAYLOAD·🇨🇳 China

打ち上げ Dec 16, 2024 から Wenchang Space Launch Site

Loading…

次のパス (今後24時間)

TLE

最新Source: Space-Track

元期: Sep 14, 2026, 14:00 UTC

1 62326U 24240D   26257.58339874  .00000048  00000-0  76937-4 0  9998
2 62326  86.4987 313.0303 0001610  88.9566 271.1752 13.24412985 84473

AllMySatでHULIANWANG DIGUI-04をリアルタイム追跡

Download on the App Store